Wind_Speed
18 24 27 27 27 27 26 26 27 27 27 27 27 28 28 26 26 25 25 25 26 25 24 23 22 20 18 18 18 17 16 16 16 16 15 15 14 14 15 14 14 14 13 13 12 11 9 8 6 5 6 6 6 5 4 3 3 3 3 4 4 2 1 2 1 3 3 4 2 3 3 3 3 3 2 2 4 5 3 3 5 6 7 7 7
18 22 25 27 27 28 27 26 28 29 28 28 29 29 28 27 26 26 25 25 26 26 25 23 22 20 19 18 18 17 17 17 17 17 16 15 14 15 15 15 15 15 14 14 13 12 11 9 6 6 7 6 5 5 5 4 3 4 5 5 4 3 2 1 2 3 3 4 3 4 4 3 3 3 3 3 5 5 4 4 4 5 7 9 8
18 20 24 27 28 29 27 26 29 29 29 29 29 30 30 28 27 26 26 26 26 26 25 23 22 20 18 17 18 17 17 17 16 16 16 15 15 16 15 15 16 15 15 15 14 13 12 11 9 8 7 7 5 5 5 5 5 6 6 6 4 4 3 1 2 4 2 4 4 3 4 4 2 2 4 4 5 5 4 4 4 5 6 7 6
18 20 22 24 27 29 27 26 28 29 29 30 30 31 31 30 29 28 27 26 26 26 25 23 21 20 18 17 17 16 15 16 16 16 16 16 16 17 17 17 17 16 16 16 15 14 13 12 10 8 8 7 7 6 6 6 6 6 7 7 5 4 4 4 3 3 1 4 4 2 2 4 3 4 5 4 5 5 5 4 4 4 5 4 4
19 22 22 22 24 27 28 27 28 29 30 31 32 32 31 31 31 30 28 27 27 27 26 23 21 20 19 17 16 16 15 15 17 17 17 17 18 18 18 18 18 17 16 17 16 14 13 12 10 9 8 8 8 7 6 6 6 6 7 7 7 5 3 4 4 3 2 2 2 2 0 1 2 6 6 3 4 5 5 6 5 4 5 3 3
18 21 22 22 23 26 28 27 28 29 30 31 32 32 31 31 31 30 28 27 27 28 27 25 22 22 20 18 17 17 17 17 18 18 18 18 18 18 18 18 18 18 17 17 17 15 13 13 12 11 10 9 9 7 7 7 6 7 8 8 7 5 3 4 4 5 3 3 4 3 1 1 2 4 4 2 3 4 5 6 6 5 6 5 4
18 20 22 22 24 25 28 29 30 30 31 31 31 32 32 31 32 32 29 27 27 28 28 26 24 23 22 21 19 19 18 18 18 17 17 17 17 17 18 18 18 18 17 18 18 17 14 13 13 13 11 10 10 9 8 8 7 7 9 8 7 6 5 5 4 6 6 5 6 4 4 2 2 2 3 2 3 3 3 5 6 6 6 6 6
19 20 22 23 24 26 29 31 32 30 31 31 31 32 33 32 33 33 30 28 28 28 29 29 26 24 24 22 20 20 19 18 17 17 16 16 16 17 17 17 18 18 18 18 19 18 16 14 14 14 13 12 11 11 10 9 7 7 9 8 7 7 7 6 5 6 7 6 7 6 5 4 1 2 3 2 3 3 3 5 6 7 6 6 6
20 20 22 23 25 29 33 33 32 31 30 31 32 32 33 33 33 33 31 29 29 29 30 31 28 25 25 23 21 20 19 18 17 17 17 16 16 16 17 17 17 18 18 19 19 19 18 16 15 15 14 14 13 12 10 10 9 9 9 10 9 8 8 7 6 6 6 7 8 7 5 4 5 5 5 4 4 3 3 4 5 7 5 5 6
20 20 21 23 26 32 33 33 32 31 31 32 31 31 32 32 32 33 32 30 30 30 31 31 29 26 26 25 24 21 20 18 17 17 18 17 17 17 17 17 17 18 18 19 19 19 19 18 17 16 15 14 14 13 11 11 10 10 11 11 10 10 9 8 8 7 7 7 9 9 7 6 5 5 6 7 6 4 3 5 8 9 7 6 6
17 19 20 22 26 30 31 32 33 32 31 31 31 30 31 32 32 33 33 31 30 31 31 31 30 29 27 27 26 24 21 19 18 18 18 19 19 19 18 18 17 17 17 18 19 19 19 19 18 17 15 15 14 14 13 12 11 11 11 11 12 11 10 10 9 9 9 7 8 10 8 8 7 6 7 7 6 6 5 6 6 7 6 7 7
17 17 18 20 22 25 28 30 32 32 31 31 31 31 31 32 33 33 33 32 31 31 31 31 31 30 28 27 27 26 23 21 21 20 19 19 20 19 19 19 18 17 17 18 19 20 19 19 18 17 16 15 15 14 13 13 12 11 12 12 12 12 11 11 10 10 10 9 9 10 10 9 9 8 8 5 4 4 4 4 2 3 4 5 7
17 17 17 18 19 21 24 28 31 32 33 33 33 32 32 32 34 34 34 33 31 31 32 31 31 30 29 27 26 26 25 24 23 22 21 20 20 20 20 19 19 18 19 19 19 20 20 20 19 18 17 17 16 15 14 13 13 12 12 12 13 13 13 12 12 11 11 11 10 10 10 10 9 8 8 6 6 5 4 5 3 4 5 6 7
16 17 17 18 19 19 22 27 30 32 34 35 35 34 33 32 34 35 34 33 32 32 32 32 31 30 29 28 26 26 26 25 24 23 22 21 20 21 21 20 20 20 20 20 20 20 20 20 20 19 18 17 17 16 15 14 14 13 13 13 13 14 13 13 12 12 12 13 12 11 11 11 10 9 9 8 7 7 7 7 4 4 6 6 8
15 17 18 19 20 21 22 27 30 31 34 35 35 34 33 33 35 36 35 35 33 32 32 32 32 31 30 29 27 26 26 26 25 24 23 23 22 21 21 21 20 20 20 20 20 20 20 20 20 20 19 18 18 17 16 15 15 14 14 14 14 13 13 13 13 13 13 14 13 12 11 10 10 10 10 9 8 8 8 8 6 4 5 4 6
14 15 18 20 20 21 23 27 29 31 33 34 34 35 34 34 35 37 36 36 35 34 34 33 32 31 30 29 28 27 26 25 25 25 25 24 23 22 21 21 21 20 19 20 20 21 21 21 21 21 20 20 19 19 18 17 16 16 15 15 15 14 14 14 14 13 13 14 14 13 12 11 10 10 10 9 9 8 7 7 7 7 5 4 4
14 16 18 19 20 21 25 28 30 31 33 34 35 37 37 35 35 36 36 36 36 35 34 33 32 31 31 31 29 28 28 27 26 27 26 25 24 23 22 21 21 21 20 19 20 21 22 22 22 21 21 21 20 20 20 18 17 17 17 17 17 15 15 15 14 14 14 14 15 15 14 12 10 11 11 10 9 9 7 7 8 9 7 5 4
17 18 18 19 20 21 24 29 32 34 35 35 36 36 36 35 36 37 37 36 37 36 35 33 33 32 32 32 31 30 29 28 27 26 26 25 25 24 24 23 22 22 21 20 20 21 22 23 22 22 22 22 21 21 20 19 19 18 18 18 18 17 16 15 15 15 15 15 15 15 15 14 12 11 11 11 10 10 9 9 9 10 9 7 5
16 17 16 17 19 21 24 29 32 34 35 35 35 34 34 34 35 36 38 38 38 37 35 34 34 33 32 33 34 32 30 29 27 26 26 26 26 26 25 25 23 22 22 22 21 21 22 23 23 23 22 22 22 22 21 20 20 19 19 19 19 18 17 16 16 16 16 16 16 16 16 15 14 13 13 12 11 12 12 11 11 10 10 10 8
15 14 14 17 20 22 27 30 31 32 33 33 34 35 35 34 34 35 36 37 36 35 35 35 36 35 33 33 34 33 31 29 28 27 27 28 28 27 26 26 24 22 22 23 23 22 22 23 23 23 23 23 23 22 21 21 21 20 20 19 19 20 19 18 17 17 16 16 17 17 16 16 15 14 14 13 13 13 13 12 12 12 11 11 10
13 14 16 20 20 22 26 29 29 30 31 32 34 35 35 35 34 35 35 36 36 36 35 36 36 34 33 33 34 34 33 31 29 29 29 28 28 28 27 26 25 24 23 23 24 24 23 23 23 23 23 23 23 23 22 21 21 21 21 20 20 21 21 20 19 18 18 17 17 18 17 17 16 15 14 14 14 14 14 13 13 13 12 12 12
14 15 16 16 17 19 22 25 26 28 30 32 33 34 35 35 35 35 35 36 37 37 37 36 35 34 34 34 34 33 33 32 31 30 30 29 28 29 29 27 26 26 25 25 24 24 24 24 23 23 23 23 23 23 22 22 22 22 21 21 21 22 22 21 20 20 19 19 18 19 19 18 18 17 16 15 15 15 15 15 14 14 13 13 13
17 18 15 13 14 15 18 22 24 26 28 31 31 32 35 36 35 34 35 37 37 37 37 36 35 35 35 35 33 33 33 33 33 32 31 31 29 29 29 28 28 26 26 26 25 24 24 25 25 24 24 23 23 24 23 23 23 23 23 22 22 22 23 23 22 22 21 21 20 20 20 20 19 18 18 17 16 16 16 16 15 15 14 14 14
14 14 12 13 14 14 15 17 19 22 25 29 30 31 32 34 34 35 36 37 36 36 35 34 34 35 35 35 34 34 34 35 35 34 33 33 31 30 30 30 29 28 26 26 26 26 25 26 26 26 25 25 25 25 25 24 25 25 24 24 23 23 24 24 24 23 23 23 22 22 22 22 21 20 19 18 17 17 17 16 16 16 15 14 14
9 9 9 12 13 13 13 13 15 20 25 27 28 29 30 32 34 34 34 35 35 34 34 34 34 34 34 35 35 35 35 36 36 35 34 34 33 32 31 30 30 30 29 28 27 27 27 27 28 28 27 27 27 27 27 26 25 25 26 25 24 24 24 24 25 25 24 24 24 24 23 23 23 22 21 20 19 19 18 17 17 16 16 15 14
8 9 9 10 11 11 13 12 13 20 23 24 26 28 28 30 32 33 32 33 33 33 33 33 33 33 34 35 36 36 36 36 36 35 34 35 35 33 32 31 31 31 31 30 29 29 29 29 29 29 29 29 28 28 28 27 26 26 26 26 26 25 25 25 25 25 25 25 26 26 25 25 25 24 23 22 21 21 20 18 18 17 17 16 15
6 8 8 8 9 10 13 12 14 19 22 23 25 27 27 28 30 31 30 31 33 33 33 33 33 33 33 35 35 36 35 35 35 34 34 33 34 34 32 31 30 30 31 31 30 30 30 30 30 30 30 30 30 29 29 29 28 27 27 27 26 26 26 25 26 26 26 27 27 27 26 26 27 27 25 24 23 23 22 20 19 18 17 17 16
8 8 8 9 8 9 11 12 14 18 21 22 24 25 27 27 28 30 30 30 31 32 33 33 32 32 32 34 35 34 35 35 34 34 34 33 33 33 32 31 30 29 30 30 30 30 29 29 29 29 29 29 30 30 29 29 29 28 27 27 27 27 26 26 26 26 27 28 28 28 27 27 28 28 28 26 25 24 23 21 21 19 18 18 17
11 8 8 9 9 9 10 12 13 16 19 21 21 23 24 25 26 28 30 30 30 31 32 32 32 32 32 32 32 32 32 33 33 33 34 34 33 32 32 31 30 29 28 29 29 29 28 28 28 28 29 29 29 30 30 30 30 29 28 27 27 27 28 27 26 27 27 28 29 28 27 28 29 30 31 29 27 26 25 23 22 22 20 20 18
9 9 9 8 9 10 10 11 12 13 16 19 20 21 23 24 25 27 28 29 29 30 32 32 32 32 31 30 31 30 29 30 32 33 33 33 32 32 31 32 31 29 28 27 28 28 28 27 27 28 28 29 30 31 32 34 33 31 29 28 28 28 28 28 27 27 27 27 28 29 28 28 30 31 33 33 30 29 28 25 24 24 23 22 20
2 5 7 9 9 9 10 11 12 13 16 18 19 21 22 24 25 27 28 28 28 29 31 32 32 31 29 29 30 30 29 30 32 32 32 30 30 30 30 31 31 30 28 27 27 28 28 28 28 28 29 30 31 32 34 37 37 35 32 29 28 27 28 28 28 27 27 27 28 29 28 28 30 33 34 35 34 32 31 28 25 25 26 25 22
3 2 2 7 10 11 11 12 12 14 17 18 19 20 22 23 25 26 26 27 28 29 30 31 31 29 29 29 29 30 30 30 31 32 31 29 29 29 29 29 30 30 29 28 28 29 29 29 29 29 30 31 31 32 36 39 40 41 38 32 28 27 27 28 29 29 28 28 28 29 28 28 30 33 35 36 36 35 33 32 30 27 28 28 26
3 4 5 5 6 7 9 9 8 11 14 17 20 21 22 23 23 23 25 27 29 30 29 30 30 29 30 30 30 30 31 30 30 31 30 28 28 30 30 30 30 30 30 30 30 30 30 31 30 30 30 31 31 32 36 40 41 43 44 39 32 27 27 28 29 30 30 30 29 29 29 29 28 32 35 36 37 38 36 35 34 31 30 30 29
5 5 6 5 3 1 3 4 6 8 10 12 16 19 20 21 21 23 25 27 28 28 28 29 30 31 30 30 29 30 31 30 29 29 29 29 30 32 32 31 30 30 31 32 31 30 30 31 31 30 30 30 31 32 35 39 42 43 45 45 39 30 27 28 30 31 31 31 32 31 31 30 29 31 34 34 34 38 39 37 37 35 32 31 32
5 4 4 4 4 3 3 5 6 7 8 8 11 15 18 19 21 24 26 25 25 26 26 27 29 30 30 29 29 29 28 27 27 28 29 31 31 31 32 30 28 29 30 30 30 30 30 31 31 30 30 30 31 32 34 37 42 44 44 46 44 36 30 29 29 31 31 32 33 33 32 31 29 30 35 35 32 33 37 40 39 36 31 29 30
5 4 5 5 5 5 6 6 7 7 8 9 11 12 15 19 21 23 25 25 25 25 25 26 28 30 30 30 28 27 27 27 27 28 29 30 30 30 29 28 27 26 27 28 28 29 29 30 31 30 31 32 32 33 35 36 40 42 43 46 46 39 32 31 30 31 32 32 33 34 33 33 30 30 34 38 36 31 32 37 38 34 30 27 27
6 7 6 6 6 6 6 6 7 9 10 10 11 12 14 17 19 21 23 25 25 26 27 27 26 28 29 28 27 27 27 27 28 29 30 30 29 27 27 27 27 26 27 28 29 29 30 31 32 32 32 33 32 33 36 36 38 41 43 46 47 39 32 32 31 30 32 34 35 35 33 32 31 31 35 40 40 34 29 30 32 30 29 28 26
9 8 8 8 7 7 7 8 9 11 11 11 11 12 13 15 18 20 22 24 26 27 28 27 26 26 27 27 27 27 26 27 28 28 28 27 27 26 26 27 27 27 27 27 28 29 30 31 32 33 34 33 32 32 36 37 38 40 43 47 46 37 31 32 32 31 32 34 35 37 35 34 33 34 37 40 42 39 31 27 29 29 28 29 27
9 9 9 9 10 9 10 11 11 11 11 11 11 12 12 14 17 19 20 23 26 26 27 27 26 25 25 26 26 27 27 27 27 26 25 25 25 25 25 26 27 27 27 27 27 28 29 30 31 32 34 35 33 32 35 37 38 39 43 47 44 35 32 33 32 31 32 33 35 38 40 40 38 35 37 41 43 42 37 31 30 30 29 29 29
10 10 11 11 10 10 9 9 8 7 7 8 8 11 12 13 15 18 20 22 23 23 23 24 25 24 24 25 26 26 27 26 25 25 24 24 25 25 25 26 27 26 26 26 27 27 28 28 29 30 32 35 34 33 35 38 39 40 43 47 43 35 34 35 34 32 32 32 36 39 41 45 45 40 37 40 43 44 42 36 32 31 29 29 29
9 10 10 11 10 7 7 8 9 8 7 7 7 8 11 12 13 16 18 18 19 20 20 21 23 24 23 24 24 25 25 25 24 25 25 24 25 25 25 26 25 24 25 25 26 26 26 27 27 28 29 32 34 34 35 38 41 42 44 47 45 39 36 36 34 32 32 33 37 38 38 44 48 46 41 41 43 45 44 39 34 32 31 29 29
9 9 8 9 8 7 7 8 8 8 7 6 7 7 8 9 11 13 14 13 14 17 19 20 21 23 23 23 23 23 24 24 24 24 24 24 24 23 24 24 24 23 24 24 24 24 24 24 25 27 28 30 32 34 36 38 41 42 43 47 49 45 40 38 36 34 34 35 35 35 36 41 47 50 48 45 45 46 45 41 37 35 33 32 32
8 7 7 8 8 7 7 8 8 9 9 7 6 8 7 7 9 9 10 11 11 14 17 19 20 21 21 21 21 21 21 21 22 22 22 22 22 22 22 22 22 22 22 22 23 24 23 23 24 25 26 28 29 31 34 37 40 41 43 47 51 50 45 41 40 38 38 36 33 33 35 38 44 51 53 50 47 46 46 45 41 38 36 36 35
7 7 8 8 6 5 6 6 7 8 9 10 5 5 7 6 5 4 4 8 11 11 14 16 17 18 18 18 19 19 19 19 19 20 21 21 21 21 21 21 21 21 20 21 22 23 24 24 24 24 26 27 28 29 31 35 39 42 43 46 49 51 50 47 43 40 39 35 31 31 33 36 41 49 54 53 50 48 48 49 46 43 42 41 38
7 6 6 6 5 4 5 5 7 7 8 10 7 2 4 3 4 3 0 3 7 9 10 12 13 14 15 16 16 16 17 16 16 17 18 19 19 19 19 19 20 21 20 20 21 22 22 22 22 24 25 25 26 27 29 32 36 41 44 47 49 51 53 51 47 44 42 37 31 30 31 33 38 46 51 54 53 51 50 51 49 46 45 44 40
7 5 6 6 4 4 4 4 5 6 6 8 8 4 3 4 3 1 2 2 4 6 8 9 10 11 12 13 14 14 15 15 15 15 16 17 17 18 18 18 19 20 20 19 19 19 19 20 21 22 23 24 25 26 27 29 32 37 42 45 47 50 51 53 53 51 48 42 36 32 30 29 33 43 49 52 53 51 50 51 50 48 47 45 42
6 5 5 6 3 3 4 4 4 5 6 6 6 4 2 1 0 2 3 2 4 6 7 8 8 9 10 11 12 12 13 14 14 14 15 15 16 17 17 17 18 18 18 18 19 18 18 19 20 21 22 23 23 24 25 25 25 29 36 41 45 48 50 52 55 57 53 46 40 37 34 30 29 38 47 51 52 51 50 49 47 46 46 44 42
4 3 3 4 3 2 3 4 5 6 6 6 6 5 4 2 1 1 1 3 4 5 6 7 7 7 8 9 10 11 11 12 13 14 14 15 15 16 17 17 18 18 17 18 19 19 19 20 20 20 21 21 21 22 24 24 22 23 29 34 40 45 48 51 54 57 55 47 39 37 35 29 28 37 46 48 48 49 50 49 47 45 44 42 42
2 2 2 2 2 2 4 6 6 6 6 6 6 6 5 5 4 3 2 3 4 4 5 6 6 7 7 7 8 9 9 10 11 12 13 13 14 14 13 14 15 17 18 18 17 17 18 18 18 19 19 19 20 21 22 23 24 24 28 32 35 40 45 49 52 54 50 43 38 35 31 26 30 39 41 39 39 42 44 47 50 49 45 42 43
0 1 1 2 2 2 4 5 4 4 5 6 6 6 5 5 5 5 4 4 4 4 5 6 5 4 4 5 6 7 8 8 9 10 11 12 12 13 12 10 9 10 12 14 14 14 15 15 15 17 19 19 19 19 18 19 21 22 26 30 35 39 42 44 49 51 48 41 36 34 31 32 37 39 34 30 32 35 37 39 44 47 45 41 42
2 2 3 4 5 5 5 5 4 4 5 6 7 7 7 6 6 6 5 5 4 4 5 5 5 7 7 4 2 3 3 3 3 4 5 6 8 11 11 9 9 9 10 12 14 16 18 19 20 22 25 27 27 26 25 27 27 25 24 25 30 37 41 41 44 47 45 40 36 33 33 35 38 37 34 34 34 36 37 38 40 42 41 39 38
Wind_Direction
187 182 183 181 181 181 179 180 180 182 183 182 184 186 188 189 188 189 191 189 188 190 192 194 196 196 198 199 199 200 201 204 208 211 211 207 204 200 197 199 198 196 198 201 206 212 218 227 215 200 216 218 216 232 241 223 197 196 212 222 231 243 241 202 101 74 112 116 127 153 143 169 167 139 185 189 151 143 131 119 116 115 108 97 90
190 180 181 181 182 181 179 179 180 181 182 182 184 187 188 190 189 189 191 189 188 191 192 194 197 196 197 199 199 199 199 202 205 210 212 207 204 202 198 200 200 197 198 200 203 205 207 215 212 202 217 223 219 227 228 216 215 218 216 220 222 215 231 204 147 173 164 132 145 154 148 172 160 168 207 184 152 144 138 134 113 102 102 102 100
192 180 179 180 182 182 179 180 182 181 181 183 185 188 189 190 190 189 191 191 191 191 192 194 196 197 199 199 201 202 201 204 206 209 213 209 205 204 202 201 200 199 198 199 201 203 206 208 204 201 210 213 214 224 221 210 211 219 218 219 220 201 189 158 181 237 233 121 152 179 156 159 153 197 204 166 147 142 142 134 107 91 90 101 112
192 183 179 179 181 182 181 180 181 181 181 183 186 188 189 191 191 190 192 192 192 191 192 194 194 196 199 200 203 205 204 205 208 210 211 212 208 204 204 203 201 201 199 200 203 201 203 206 203 200 202 200 206 218 216 211 211 214 218 215 219 212 178 150 160 242 282 127 172 234 171 165 176 186 175 150 147 149 152 140 122 114 107 114 115
194 184 179 179 181 182 182 181 181 182 183 184 185 187 189 191 191 190 191 193 193 192 191 192 193 194 197 199 203 206 207 204 207 210 209 210 210 205 204 204 203 203 201 202 205 201 197 202 202 195 193 194 202 214 215 216 216 213 215 211 214 223 185 158 158 186 210 170 220 292 196 197 169 157 154 153 166 161 161 150 141 146 136 127 99
199 185 179 180 181 180 181 183 184 184 185 185 186 187 189 189 190 190 190 193 194 193 191 191 192 193 194 196 197 201 205 205 204 207 207 207 211 208 204 205 205 205 204 203 204 202 196 197 200 196 193 194 200 213 217 217 216 213 214 211 211 216 205 192 174 174 195 218 246 289 299 305 50 136 148 152 181 172 173 164 159 169 157 150 149
199 191 181 179 180 180 182 184 187 186 185 185 185 186 187 187 188 189 190 192 194 194 191 192 193 193 194 197 198 199 203 205 204 206 209 208 210 210 206 204 206 206 205 204 203 203 199 195 198 202 202 199 199 208 216 218 216 213 211 209 207 199 197 213 198 173 174 204 221 224 225 243 30 116 159 155 175 179 196 188 176 179 171 164 172
195 193 184 181 182 183 183 185 188 187 183 183 184 185 186 186 187 188 190 192 193 193 192 193 194 194 196 199 201 203 204 205 203 205 211 212 211 212 210 206 205 207 206 204 204 204 203 199 198 203 208 206 204 208 214 217 215 209 206 206 205 197 193 207 212 182 172 190 208 214 218 218 182 167 171 184 193 178 196 210 191 182 186 181 181
195 191 186 185 184 184 185 185 186 186 184 184 185 185 185 185 186 186 189 192 193 194 193 194 194 195 198 201 202 205 207 207 205 206 210 212 212 212 212 209 204 206 207 204 204 204 206 204 201 204 207 208 209 212 214 213 211 205 204 202 199 201 197 197 209 205 194 184 184 206 222 203 203 197 180 197 216 202 187 192 183 178 191 191 191
193 191 189 189 188 187 185 183 184 185 185 185 185 185 184 184 184 186 188 190 192 193 194 194 194 196 200 203 204 204 205 208 208 208 207 209 211 210 210 210 206 206 208 207 205 205 206 207 207 207 207 207 209 213 213 211 209 204 203 202 199 201 198 194 200 206 216 200 173 188 213 204 207 210 199 200 198 202 216 204 187 183 192 195 199
192 192 192 191 190 188 185 183 183 185 185 185 185 185 184 184 184 186 188 189 190 192 193 194 194 197 201 204 205 204 204 207 208 208 206 205 209 208 207 208 207 207 208 209 209 209 208 208 210 211 211 209 207 209 212 211 210 206 202 202 200 201 198 196 200 200 213 222 186 180 197 205 203 205 218 218 192 188 216 230 201 171 174 187 197
192 192 191 191 190 188 187 185 184 184 184 184 186 186 184 184 184 185 188 189 190 191 192 194 194 196 201 204 205 205 205 206 208 208 206 205 207 208 206 206 207 208 207 208 211 211 210 209 211 213 213 211 208 208 210 212 212 208 204 202 198 201 200 196 201 201 202 215 208 191 195 207 204 204 221 224 209 211 224 242 223 127 146 172 185
191 193 190 189 190 189 189 186 184 184 184 184 186 185 184 184 184 185 187 188 189 191 192 193 195 196 200 203 205 205 205 207 208 209 208 206 207 207 206 204 205 208 208 208 210 209 208 208 210 211 212 212 211 210 209 210 212 208 205 203 198 199 200 196 200 205 202 205 213 206 202 209 206 206 218 210 199 205 222 239 214 174 191 176 174
191 192 190 189 190 191 190 187 185 186 185 185 185 185 184 184 184 184 186 187 188 190 191 192 194 197 200 203 205 204 205 206 208 209 209 208 209 208 208 206 206 208 209 210 210 207 207 207 208 209 211 210 210 210 208 208 210 210 207 204 201 199 197 197 202 209 207 205 212 215 211 213 209 204 212 213 201 189 202 223 204 204 225 181 162
191 191 191 191 189 188 191 189 188 188 187 186 185 185 185 184 184 184 185 186 187 188 190 192 194 197 199 202 204 203 203 205 207 208 209 209 210 210 210 210 210 211 211 211 210 207 206 206 205 207 209 209 208 208 208 207 208 211 211 208 205 200 195 198 205 212 211 206 210 218 218 216 211 206 207 210 213 203 203 212 197 212 246 188 160
190 197 194 191 188 186 189 190 189 190 189 188 186 185 186 185 184 184 184 184 186 187 189 192 194 196 199 201 202 202 202 203 205 206 208 210 211 212 213 213 214 213 213 211 209 206 205 203 203 205 206 207 207 207 207 208 208 211 213 212 209 204 197 198 205 212 213 209 209 213 220 221 209 209 212 208 214 218 212 211 204 208 227 212 189
190 204 200 190 187 187 189 190 189 189 191 191 189 186 186 185 184 184 184 184 185 187 189 191 192 195 198 200 200 201 202 202 204 205 207 209 211 213 215 214 214 213 213 211 208 206 204 203 202 203 204 205 206 207 207 207 207 210 213 213 212 207 200 199 203 210 213 211 210 209 214 222 214 208 215 212 210 218 216 213 212 213 222 232 221
190 201 200 188 187 188 189 191 191 190 191 191 190 188 186 186 185 185 185 186 186 188 190 190 191 194 197 199 200 201 203 204 205 206 206 207 209 212 214 214 213 212 212 212 209 206 204 204 203 202 203 204 205 206 207 206 206 210 212 213 213 208 203 201 201 208 214 211 211 209 207 215 216 208 212 214 208 208 214 215 214 214 216 227 239
191 197 198 190 187 189 189 192 193 191 191 191 189 189 189 189 188 187 187 188 188 189 190 189 191 194 196 198 199 200 202 204 205 206 205 206 209 211 212 212 211 211 211 210 209 207 205 204 203 204 204 204 204 205 206 205 206 209 210 212 212 208 205 204 200 204 212 212 211 211 207 208 213 209 209 213 209 205 209 213 214 215 212 216 232
194 193 199 197 191 190 191 193 194 192 190 190 189 190 192 192 191 191 190 190 190 190 189 190 192 195 195 197 198 199 201 202 203 205 205 206 207 209 211 210 209 209 209 209 208 208 206 205 204 205 206 205 204 204 204 204 206 208 210 211 210 207 206 206 203 203 207 210 212 212 208 206 207 208 208 209 209 206 208 212 213 213 213 213 217
202 197 199 200 194 191 192 192 192 192 190 190 191 191 193 193 193 194 193 191 192 191 191 192 194 196 196 196 197 199 200 201 202 204 205 206 206 208 210 209 207 208 208 208 208 207 206 206 206 207 206 206 204 204 203 203 206 208 209 211 210 206 206 206 205 204 205 208 211 211 210 206 204 205 206 207 208 205 205 211 213 211 212 212 209
203 205 200 199 197 191 189 189 191 191 191 192 194 192 193 195 195 195 195 194 194 193 192 193 193 195 196 196 197 198 199 200 202 204 205 206 206 208 209 207 206 208 208 208 208 207 206 205 206 207 206 206 204 204 203 203 206 208 208 210 210 206 205 207 207 206 205 206 209 210 209 206 205 206 206 207 208 206 205 208 211 211 212 212 208
196 202 197 194 201 195 184 185 190 193 193 193 195 195 195 196 195 195 197 197 197 196 194 192 191 193 195 196 197 198 199 200 203 205 206 206 206 208 208 207 207 207 207 208 208 206 205 204 205 206 205 205 204 204 205 205 206 208 209 210 209 206 205 206 209 209 207 206 208 209 208 206 205 206 207 209 209 208 207 208 210 210 212 214 210
192 204 193 180 189 191 183 183 188 194 195 194 197 198 197 197 196 197 199 199 198 198 195 192 192 194 194 195 196 197 199 201 203 206 207 207 207 208 207 207 208 208 207 207 207 207 205 203 204 205 204 204 204 203 205 207 206 207 209 211 210 207 206 207 209 211 209 207 207 207 207 206 204 205 206 208 210 210 208 208 210 209 210 214 211
183 209 198 180 181 181 180 182 185 191 196 195 197 199 200 199 199 200 200 199 198 198 196 194 194 195 195 195 196 198 200 202 203 206 207 207 208 208 208 207 208 209 208 207 206 205 205 203 203 204 204 204 205 204 205 206 207 207 209 211 211 209 208 207 209 211 211 209 208 208 207 205 204 205 205 206 207 209 209 209 208 207 207 211 212
183 197 195 189 184 177 177 182 185 190 196 197 197 200 202 201 202 203 201 199 199 198 197 196 196 196 196 196 197 199 201 202 204 206 207 208 209 210 210 208 208 209 209 208 206 204 205 205 203 203 204 204 205 205 206 207 209 209 208 210 211 210 209 208 208 211 213 212 210 209 207 205 204 204 205 205 205 205 208 209 208 207 204 205 210
179 187 188 192 189 178 178 183 187 192 196 198 199 201 203 202 203 205 203 200 199 199 198 197 197 197 197 198 198 199 201 202 203 205 207 208 210 211 211 210 209 209 209 209 207 204 204 205 204 204 205 205 205 206 207 207 209 210 209 209 210 211 211 210 209 211 214 215 213 210 209 207 206 205 205 204 203 202 205 208 208 207 204 203 207
164 179 182 188 192 184 180 183 189 195 197 199 201 203 204 204 203 203 204 203 200 199 198 197 197 198 198 199 199 199 200 201 203 205 207 208 209 210 211 211 210 209 209 209 208 206 204 205 205 205 205 205 205 207 208 208 208 210 211 210 210 211 211 212 211 211 214 218 217 214 213 211 208 207 206 204 202 200 200 203 206 205 205 203 205
153 168 180 184 189 186 184 187 191 196 197 199 203 204 204 206 205 204 205 205 201 199 199 198 197 198 199 199 199 199 199 201 202 204 206 208 208 209 210 210 209 208 208 209 210 208 206 205 206 206 206 207 207 208 209 209 208 209 210 211 211 211 212 213 213 212 214 218 221 219 217 215 213 210 209 206 204 202 199 199 200 201 203 204 204
140 159 174 178 186 188 187 190 194 197 199 200 202 203 204 205 205 205 206 206 201 198 198 199 199 200 198 196 197 198 198 199 201 204 205 206 207 207 207 208 209 209 208 207 209 210 209 207 207 207 208 209 210 211 211 211 210 209 209 211 212 212 212 213 214 214 214 216 221 224 222 219 217 215 213 210 207 205 202 200 199 199 200 200 203
112 160 167 167 179 189 191 194 197 199 201 203 203 203 205 205 205 205 206 206 203 199 198 200 202 200 196 194 194 195 196 197 199 202 203 203 203 204 205 207 208 208 208 207 208 210 211 210 209 209 210 212 213 213 213 212 212 212 210 210 212 213 212 212 213 214 214 214 219 225 225 222 220 217 215 213 210 208 206 203 202 201 201 200 201
301 301 197 173 179 188 193 200 204 202 202 205 204 204 205 207 206 204 203 204 205 203 200 200 202 200 195 194 192 192 194 195 196 199 200 200 200 201 203 205 206 206 206 207 208 209 210 212 211 211 213 216 217 216 214 213 214 214 213 212 212 213 212 212 212 213 213 213 215 221 224 223 220 217 216 214 212 211 210 208 206 204 205 205 204
306 303 277 235 203 191 192 203 212 208 208 207 205 205 206 207 207 204 202 203 205 205 201 198 200 200 197 195 192 191 193 194 194 196 197 196 197 200 202 204 204 204 205 206 207 207 209 211 212 213 215 217 219 219 217 215 215 216 216 214 212 214 214 213 213 212 212 212 212 215 220 221 219 216 213 211 211 212 212 213 212 210 209 209 210
308 294 284 293 318 294 227 246 251 242 237 223 210 208 208 206 205 204 204 204 205 205 202 197 198 200 199 196 193 192 193 193 192 192 193 195 198 201 203 203 203 203 204 206 208 207 208 210 212 214 216 218 221 222 220 217 217 217 217 216 214 214 216 218 217 214 212 212 211 212 216 217 217 214 209 204 205 209 211 212 214 213 212 212 213
292 309 337 359 355 331 298 286 281 273 269 251 226 214 207 205 206 205 206 204 203 205 202 197 196 200 199 197 195 194 193 192 191 191 192 196 199 201 202 203 204 205 205 207 208 208 209 211 212 213 217 221 224 225 223 220 219 218 219 217 215 214 216 220 221 218 216 215 213 212 213 214 212 210 206 201 199 202 207 210 212 212 210 210 212
306 337 359 1 339 315 302 293 290 284 272 258 245 227 211 207 206 205 205 204 202 204 204 199 197 199 199 198 195 193 192 192 192 193 195 198 200 200 201 201 204 207 208 207 209 212 213 214 214 214 219 224 227 227 225 223 220 219 219 218 216 214 215 219 221 220 220 220 218 213 211 213 211 208 206 204 201 197 200 207 209 208 207 208 211
351 350 344 338 324 310 302 290 279 272 266 259 253 241 223 212 207 204 203 203 202 204 205 202 198 198 200 199 196 194 194 194 194 195 198 199 200 200 199 200 203 207 209 209 211 215 218 219 218 217 219 224 227 227 227 225 222 219 217 216 215 213 215 219 221 220 220 222 224 219 212 211 211 209 207 205 204 199 195 200 204 202 203 207 209
5 346 336 336 335 330 319 302 285 274 267 260 254 248 232 216 209 205 202 202 204 205 205 204 201 198 199 199 198 197 196 196 197 199 200 199 199 200 200 201 204 208 211 213 213 216 218 219 220 219 218 222 225 226 227 227 224 220 217 215 213 211 214 219 221 222 221 221 225 225 219 212 210 210 209 206 205 201 195 195 200 199 200 204 205
345 333 338 341 337 329 312 292 280 273 265 256 251 247 236 219 211 208 203 203 207 207 205 205 202 199 199 200 200 200 200 200 200 200 201 200 200 202 202 203 207 210 212 215 215 217 219 218 220 221 220 221 223 225 226 226 225 222 218 215 213 210 214 218 219 221 223 222 225 227 224 219 214 211 209 207 205 203 197 195 199 199 199 202 201
333 338 346 337 320 315 308 301 308 310 291 271 251 240 234 221 211 211 209 207 208 207 205 205 203 201 200 200 201 203 202 202 202 201 202 202 202 204 205 205 209 211 213 216 217 219 221 221 221 222 222 221 223 224 225 225 225 224 220 215 211 211 216 219 219 221 224 226 227 226 225 222 218 213 210 207 207 205 201 198 198 199 199 199 196
328 340 343 326 312 319 323 321 336 339 309 285 264 242 233 221 212 216 218 213 207 204 203 203 203 203 203 201 202 203 201 201 202 201 203 205 204 206 207 207 209 212 213 216 218 220 224 224 224 224 223 223 223 223 224 226 226 225 221 215 212 212 217 221 222 223 224 226 226 223 223 223 218 213 211 209 207 207 206 202 199 200 200 197 192
324 331 335 328 325 339 337 330 338 335 309 279 252 236 231 220 213 219 225 220 208 201 202 203 203 204 206 204 202 201 199 200 202 202 203 206 207 208 209 208 211 213 214 215 217 220 224 226 227 226 225 226 226 224 224 226 228 226 222 218 215 216 219 222 225 226 224 225 225 222 223 223 218 213 212 212 209 207 206 204 203 202 200 196 192
314 317 338 340 333 337 338 336 341 341 336 318 258 219 215 216 211 215 224 225 215 203 201 204 206 205 207 206 203 201 199 199 201 201 202 204 206 208 209 209 211 213 214 217 219 222 226 229 230 230 229 230 230 227 225 226 228 228 226 223 221 221 221 221 224 229 230 228 226 224 224 224 220 214 213 212 209 205 205 206 205 203 199 195 191
314 325 344 337 326 338 343 345 356 357 351 344 319 204 191 197 188 182 219 223 218 207 199 201 205 204 206 207 204 201 201 200 199 199 200 202 204 206 208 208 210 214 219 222 224 226 228 232 235 236 236 235 234 233 231 229 230 231 230 228 226 225 223 222 224 231 235 234 232 229 227 226 221 214 213 213 209 205 205 206 204 202 198 193 189
306 320 331 315 312 343 343 346 8 15 10 5 9 112 153 119 95 88 106 207 199 196 193 194 198 200 203 205 202 199 200 200 199 198 200 203 204 206 208 209 212 218 223 226 229 230 229 233 238 241 243 243 240 238 237 235 234 234 232 231 230 228 226 224 225 230 235 237 238 237 235 233 225 216 213 212 209 207 207 206 203 201 196 190 188
307 322 327 310 315 359 356 351 6 19 31 29 29 56 87 55 54 178 215 191 178 182 184 189 192 194 198 200 200 198 199 201 202 201 203 207 209 210 212 214 218 222 224 227 233 235 234 236 239 241 244 246 246 244 242 240 238 236 234 232 232 231 229 227 227 230 234 235 237 240 246 245 231 217 212 210 207 207 208 205 202 199 194 190 188
312 332 332 318 330 22 24 21 27 31 40 47 47 54 71 68 165 200 194 184 188 187 185 188 190 190 192 196 198 199 199 202 205 206 208 210 212 214 216 217 219 223 224 227 232 236 238 240 242 244 244 245 247 248 245 244 240 235 233 232 231 230 229 227 227 230 232 233 234 237 245 251 236 219 214 211 208 207 205 201 199 196 193 192 190
312 335 332 335 1 44 55 56 56 50 48 58 63 59 63 78 80 99 147 156 171 180 181 181 179 178 182 188 194 197 199 204 207 209 211 211 209 212 215 217 220 223 226 229 231 232 236 240 244 248 250 250 249 249 247 247 245 238 234 232 230 229 228 227 228 230 231 233 234 233 237 241 229 214 209 206 203 202 200 197 195 195 196 195 193
338 13 11 13 25 56 74 68 64 63 64 67 67 63 61 65 69 77 105 126 138 152 162 165 169 174 174 177 188 193 197 208 212 212 216 219 219 222 224 224 223 222 225 234 240 240 241 245 248 249 250 252 253 253 253 253 253 251 246 238 233 232 231 230 233 234 230 228 229 228 226 223 213 207 205 200 197 197 196 195 194 194 196 196 192
194 85 89 99 95 85 83 81 79 85 87 81 76 74 69 64 65 68 80 104 124 138 147 148 142 133 143 167 188 189 191 208 219 217 217 223 230 238 247 258 255 236 232 243 255 261 265 274 279 272 265 266 267 268 271 270 269 270 265 253 245 243 240 237 239 237 229 223 223 222 217 212 207 203 201 199 197 194 193 194 195 195 195 194 192
125 122 126 137 138 119 101 94 87 86 89 84 78 75 73 71 69 68 74 91 109 126 136 128 93 66 65 83 123 121 129 181 226 236 238 244 242 234 236 258 285 293 286 279 280 281 278 281 288 288 283 279 278 280 283 282 281 284 284 272 259 251 246 244 243 235 223 218 221 220 216 214 208 201 198 199 197 194 193 194 196 197 197 194 191
Height
740 741 745 749 754 757 761 765 769 773 777 780 784 787 790 793 796 799 801 804 807 810 812 814 816 817 819 821 822 824 825 827 828 829 829 831 832 834 835 836 838 839 840 841 842 842 842 842 842 843 844 844 845 845 846 847 848 848 849 849 849 850 850 850 850 850 849 850 851 851 852 852 852 853 853 853 853 855 855 855 855 855 855 856 857
739 738 742 747 752 755 759 762 766 769 773 778 781 785 788 791 794 797 800 802 804 807 810 811 813 815 816 818 820 822 823 825 826 827 828 829 831 833 834 835 837 838 839 840 841 841 841 842 842 843 843 843 844 845 846 847 847 848 848 848 849 850 850 849 849 849 848 849 850 850 851 852 852 852 853 853 853 855 855 855 855 854 854 856 857
740 737 738 742 748 752 756 759 763 766 770 775 779 783 787 789 792 795 798 800 802 805 807 809 811 813 815 816 818 820 821 823 825 826 827 828 830 831 833 834 835 836 837 838 839 840 840 841 841 842 842 843 844 845 845 846 847 847 848 848 849 849 849 849 849 849 848 848 850 850 850 851 853 853 852 853 853 854 855 855 855 855 855 856 857
740 736 735 739 744 749 753 756 760 763 767 771 776 780 783 786 789 792 795 798 800 803 805 808 810 812 814 816 817 819 820 822 824 825 826 827 828 829 831 832 833 835 836 837 838 838 839 839 840 841 842 842 844 845 845 845 846 846 847 848 848 848 848 849 849 849 848 849 851 850 848 851 855 853 851 852 853 854 855 855 856 856 857 857 857
735 733 732 735 739 744 749 754 757 760 763 767 771 775 778 782 786 789 793 796 798 801 804 806 809 811 813 815 817 818 819 820 822 823 823 825 826 827 829 830 832 833 834 835 836 836 837 838 839 840 841 841 842 843 843 844 845 845 846 847 848 847 847 848 849 849 849 850 850 850 850 852 853 850 850 853 853 853 855 855 856 857 857 858 857
730 727 727 730 734 741 747 751 754 756 759 763 767 771 775 779 783 787 790 793 796 798 801 804 806 809 811 812 814 815 817 817 818 820 821 822 823 825 827 828 830 831 832 834 834 835 836 837 838 839 840 840 841 842 842 843 844 844 846 846 847 847 847 847 848 849 850 850 850 850 851 852 849 848 852 855 854 853 854 855 856 856 857 858 858
728 725 722 726 730 735 741 746 749 752 755 759 764 768 772 776 780 783 787 790 793 796 799 802 804 806 808 810 811 813 814 815 816 818 819 820 821 823 825 826 828 829 830 832 833 834 834 836 837 837 838 839 840 841 841 842 843 843 845 846 846 847 847 847 847 848 850 851 851 851 850 850 849 850 852 855 856 856 854 854 855 855 856 857 857
722 721 719 721 724 728 734 739 743 747 752 757 760 764 768 772 776 779 783 786 790 793 795 798 801 803 805 807 809 810 811 813 814 816 817 818 820 821 822 824 826 827 829 830 831 832 833 834 835 836 837 838 838 839 839 841 841 842 844 845 846 846 846 847 847 847 848 849 850 850 850 850 851 851 851 853 855 856 855 853 853 854 855 856 856
713 714 714 716 718 722 727 733 739 744 749 753 756 760 764 768 772 776 780 783 786 790 792 795 797 799 802 804 806 807 809 811 812 814 815 816 818 819 820 822 823 825 826 828 829 830 831 832 833 834 835 836 837 837 838 839 840 841 842 843 845 845 845 846 846 846 847 848 849 850 850 850 850 850 851 852 851 853 854 852 852 853 854 855 855
705 707 709 711 713 718 723 729 735 740 744 748 752 757 761 765 769 772 775 779 782 786 789 791 794 796 799 801 803 805 807 808 810 812 813 814 816 817 818 820 821 823 824 826 827 828 829 830 831 832 833 834 835 836 837 838 838 840 841 842 843 844 845 845 846 847 846 846 847 849 850 850 850 849 849 850 850 851 852 850 849 851 852 854 855
700 702 705 708 711 716 721 726 730 735 739 745 749 753 757 761 764 768 771 775 778 782 785 787 790 793 795 798 800 801 804 806 807 809 810 812 813 814 816 818 819 820 822 824 825 826 827 828 829 830 831 832 834 834 835 836 837 838 839 841 842 843 844 844 845 846 846 846 846 848 849 849 849 849 848 848 847 849 850 848 846 847 849 852 854
697 700 703 706 711 715 718 722 726 731 735 740 744 748 752 756 760 764 767 771 774 777 781 784 786 789 792 794 796 798 801 803 804 806 807 809 811 812 814 815 817 818 819 821 822 823 825 826 827 829 830 831 832 833 834 835 835 837 838 839 840 841 842 843 844 845 845 846 846 846 848 847 847 848 847 847 847 848 849 848 846 848 849 850 853
693 697 700 703 708 710 713 717 722 726 729 733 738 743 747 751 755 759 763 766 770 773 776 780 783 785 788 791 793 795 798 800 802 803 805 806 808 809 811 812 814 815 816 817 819 820 822 824 825 826 827 829 830 831 832 833 834 835 836 837 838 839 840 842 843 844 844 845 845 845 846 846 846 846 846 846 847 848 849 848 847 848 849 849 851
690 693 696 699 702 705 708 712 717 720 723 727 732 737 741 746 750 754 758 762 766 769 772 776 778 781 784 787 790 792 794 796 798 800 802 804 805 806 808 809 810 812 813 814 816 817 819 821 822 824 825 826 828 829 830 831 832 833 835 836 837 838 839 840 842 842 843 844 844 844 844 844 844 845 846 846 846 847 849 848 847 848 847 847 850
686 688 691 693 695 700 704 708 713 716 719 722 727 732 736 740 744 748 752 757 761 764 768 771 774 777 780 783 786 788 790 792 795 797 799 800 802 803 804 805 807 808 810 811 813 815 816 818 819 821 822 824 825 827 828 829 831 832 833 834 835 836 837 838 840 841 841 842 843 843 843 843 843 843 844 845 845 845 846 847 847 849 848 847 848
682 686 688 689 690 695 700 704 708 712 716 719 722 726 730 734 738 742 746 751 755 759 763 766 770 773 776 779 781 784 786 788 791 793 795 796 798 800 801 802 804 805 807 809 810 811 813 815 816 818 820 821 823 824 826 827 828 830 831 832 833 834 835 836 838 839 840 840 841 842 842 842 842 843 843 844 844 844 845 846 846 847 849 849 848
679 684 684 684 687 691 694 698 703 707 711 714 716 720 723 728 733 737 742 746 750 754 757 761 765 768 771 774 777 780 782 784 786 788 790 793 795 796 798 799 801 802 804 805 807 808 810 812 813 815 816 818 820 821 823 824 826 827 829 830 831 832 833 834 835 837 838 839 840 841 841 841 841 842 842 842 843 844 844 845 846 846 848 848 848
674 679 680 680 682 686 690 694 697 700 705 708 713 717 720 724 728 732 736 740 744 748 752 756 760 763 767 769 772 775 777 780 782 784 787 789 790 792 794 795 797 799 801 802 804 805 807 809 810 812 814 815 817 818 820 822 823 825 826 827 829 830 831 832 833 834 836 837 837 838 839 840 840 841 841 841 842 843 844 844 846 846 846 847 847
669 674 677 677 678 681 684 688 691 695 700 705 710 715 718 721 724 727 731 734 738 742 746 751 754 757 761 763 766 769 772 775 778 780 783 784 786 787 789 791 793 795 797 799 801 802 804 806 807 809 811 812 814 815 817 819 820 822 823 825 826 827 829 829 831 832 833 835 835 836 837 838 839 839 840 840 841 842 843 843 844 845 846 846 846
663 668 673 673 673 675 677 682 686 691 698 702 706 711 713 717 720 723 727 730 734 738 741 745 748 751 754 757 761 764 768 771 773 776 778 779 781 783 785 787 789 792 794 795 797 799 801 803 804 806 808 809 811 812 814 816 817 819 820 821 823 825 826 827 828 829 830 832 833 834 835 836 837 837 838 839 839 840 841 842 843 844 844 846 846
660 663 668 669 668 669 673 679 683 688 694 698 701 704 708 712 715 718 722 725 729 733 736 739 742 746 749 752 756 759 762 766 769 771 773 775 777 779 781 783 785 787 790 792 794 795 797 799 801 803 804 806 808 809 811 813 814 816 817 818 820 821 823 824 826 827 827 829 831 832 833 834 835 835 836 837 837 838 839 840 842 842 843 844 845
659 661 664 665 665 666 670 675 680 684 688 692 695 699 703 706 709 713 717 719 722 726 729 733 737 741 744 747 751 754 758 761 764 767 769 771 773 775 777 779 781 783 785 787 789 791 794 796 798 800 801 803 805 806 808 809 811 813 814 815 816 818 820 821 823 824 824 826 828 829 830 832 832 833 834 835 835 836 837 839 840 841 842 842 843
654 656 659 662 664 664 666 672 676 679 682 687 691 693 696 699 703 708 711 713 716 720 723 727 731 734 738 742 746 750 753 756 759 762 764 766 768 771 773 775 776 778 781 783 785 788 790 792 794 796 798 799 801 803 804 806 807 809 811 812 813 814 816 818 819 821 822 823 824 826 827 828 830 830 831 832 833 834 835 836 837 839 840 840 841
649 651 651 656 661 662 664 668 672 676 679 683 686 689 692 695 699 701 704 707 712 716 720 723 726 729 733 737 740 744 747 750 753 755 758 760 763 766 768 769 771 774 776 779 781 784 786 788 790 792 794 796 797 798 800 802 803 805 807 809 810 811 812 814 816 817 819 819 821 822 823 825 826 827 828 830 831 832 833 834 835 836 837 838 839
653 653 651 654 658 660 662 665 668 672 675 678 682 685 688 691 694 696 699 704 708 712 715 719 722 725 729 731 734 737 740 743 746 749 752 755 758 760 762 764 766 769 772 774 777 779 781 783 785 787 789 791 792 794 796 797 799 801 803 805 806 807 808 810 812 814 815 816 817 818 819 821 822 823 825 826 828 829 830 831 833 834 835 836 837
656 655 654 655 656 658 661 662 665 669 672 675 679 682 684 687 690 692 696 700 704 707 710 714 717 721 724 726 729 732 735 737 740 743 747 750 752 755 757 759 761 764 767 769 771 774 776 778 780 782 784 786 788 790 791 793 795 797 798 801 802 804 805 806 808 810 811 812 813 814 815 816 817 818 820 822 824 826 827 829 830 831 833 834 835
656 655 656 656 656 658 660 662 664 667 670 673 675 678 681 683 686 689 692 695 699 702 705 709 712 715 718 721 724 726 730 733 736 739 742 745 747 750 752 755 757 759 762 764 766 769 771 773 775 777 779 781 783 785 787 789 791 793 794 796 798 800 801 802 804 805 807 809 809 810 811 812 813 814 815 817 819 822 824 826 827 829 830 831 833
655 656 657 658 659 659 660 662 663 665 668 670 672 675 677 680 683 686 688 691 694 698 701 704 707 711 713 716 719 722 725 728 732 735 738 740 742 745 748 750 753 755 757 760 762 764 766 769 771 773 776 778 779 781 783 785 787 789 791 792 794 795 797 798 800 801 803 804 805 806 807 808 809 810 811 813 815 817 819 822 824 826 827 829 830
655 657 657 658 660 660 661 662 662 663 666 668 671 673 675 678 680 682 684 686 690 694 697 700 703 706 708 711 715 719 721 725 728 731 733 736 738 741 744 747 749 751 754 756 759 761 763 765 768 770 772 774 775 776 777 779 782 784 786 788 790 791 792 794 795 797 798 800 802 803 803 804 805 805 807 809 810 812 814 817 819 822 824 825 826
652 656 656 656 658 659 660 661 661 662 664 665 668 670 672 675 677 679 682 683 685 689 692 696 699 701 704 708 712 715 718 721 724 726 729 731 734 737 740 743 745 748 750 753 755 758 760 762 764 766 767 769 769 770 771 774 776 779 781 783 785 787 788 790 791 793 794 796 798 799 799 800 801 802 803 805 807 809 810 812 815 817 819 821 823
650 652 653 654 656 657 659 660 660 661 662 663 665 667 670 672 673 676 678 680 682 685 688 692 694 697 701 705 708 711 714 717 719 722 725 728 731 733 736 738 741 744 747 749 751 754 755 757 759 761 762 763 763 764 765 768 771 774 776 778 780 782 783 785 787 788 790 791 793 795 796 796 797 798 799 801 803 806 807 809 811 812 814 816 818
651 651 651 652 654 655 657 658 657 658 659 661 663 665 667 668 669 672 675 678 679 680 684 688 691 695 698 701 703 706 709 712 715 718 721 724 727 730 732 735 737 739 742 745 747 749 750 752 754 755 757 757 758 758 760 762 765 768 771 774 776 777 778 780 781 782 784 786 788 790 791 792 792 792 794 797 799 802 804 806 807 808 810 812 813
652 652 651 650 649 650 653 653 653 655 656 658 659 661 663 664 667 669 671 674 675 676 680 684 688 691 694 696 699 701 704 707 709 713 717 720 723 725 727 729 732 734 737 739 741 743 745 747 749 750 751 752 753 753 754 756 759 761 765 768 770 772 773 774 775 776 778 780 781 783 785 786 786 787 789 792 795 798 800 802 804 805 806 807 809
651 651 649 648 647 648 650 650 651 652 652 654 656 658 660 662 664 667 668 669 672 674 677 680 683 687 689 692 695 697 700 703 705 710 713 715 718 719 721 724 727 730 732 734 736 738 740 742 743 745 746 747 747 749 750 751 754 756 759 762 765 768 769 769 770 771 772 773 775 776 777 779 780 781 783 787 789 792 795 798 800 801 802 803 805
648 648 649 649 649 650 650 649 650 650 650 651 653 654 657 660 661 663 664 667 669 671 673 676 680 683 686 689 691 693 697 700 703 706 709 710 712 714 717 721 723 726 728 730 732 734 735 737 739 740 742 742 742 744 745 746 748 751 754 757 760 762 764 765 766 766 768 768 769 770 771 773 775 776 777 780 784 787 790 792 794 796 798 799 801
644 646 648 649 649 650 650 650 650 650 650 650 650 651 653 655 657 659 661 664 667 669 671 673 675 678 682 685 687 691 694 696 699 702 703 706 708 710 714 718 720 723 724 726 728 730 731 733 735 736 737 736 737 739 740 741 743 746 750 753 755 757 758 759 760 761 763 764 763 764 765 767 770 771 771 774 778 782 784 787 789 791 793 795 796
641 644 646 647 648 649 649 650 650 650 649 648 648 648 649 650 653 655 658 661 663 665 667 669 671 675 679 682 685 687 690 692 695 697 698 701 704 708 711 714 716 718 719 721 723 725 726 728 729 730 731 731 732 734 735 737 739 742 745 747 749 752 753 754 754 755 757 758 758 759 760 762 764 765 765 768 772 777 780 782 784 787 789 790 792
643 645 645 646 648 648 649 650 649 649 648 647 647 647 647 648 650 652 655 657 659 660 663 665 669 673 676 679 682 684 687 689 691 692 695 698 702 705 707 709 712 713 714 716 718 719 720 721 723 724 725 726 727 728 730 732 734 736 739 741 744 746 748 748 749 749 750 751 752 754 756 756 757 758 759 761 765 770 774 777 779 781 783 784 786
646 647 647 648 649 650 650 649 647 647 646 646 647 647 646 647 648 649 651 653 654 657 660 663 666 670 673 676 679 681 684 686 687 690 693 696 699 701 703 705 707 709 710 712 713 714 715 716 717 719 720 721 722 723 725 726 728 731 733 736 739 741 742 741 741 743 744 744 745 748 750 749 750 751 752 754 758 763 766 769 771 773 775 777 779
648 649 650 650 651 650 649 647 646 646 646 646 646 646 646 646 647 648 648 649 652 656 659 662 665 667 670 673 675 678 680 682 685 688 691 693 695 697 699 701 702 704 706 707 708 709 710 711 712 714 715 716 717 718 719 720 722 725 727 730 734 735 735 734 735 737 738 738 740 741 741 741 743 746 747 749 752 755 758 761 764 766 768 770 774
650 651 653 652 650 649 649 648 647 647 647 647 646 646 645 646 647 647 647 648 652 655 658 661 663 665 667 670 672 675 677 680 683 685 687 689 691 693 695 696 698 700 701 703 704 705 706 707 708 709 710 710 711 712 714 714 716 718 721 724 727 727 727 729 731 731 731 731 732 733 732 733 737 741 742 743 746 749 752 756 758 760 763 766 770
653 653 654 653 651 650 650 650 648 648 647 646 646 646 646 646 647 648 649 650 652 654 657 659 661 663 665 667 669 672 674 677 679 681 684 686 688 690 692 693 695 697 698 699 701 702 703 703 703 704 705 705 706 707 709 710 711 712 715 717 718 719 721 725 727 726 725 724 724 724 725 727 730 734 736 737 738 742 747 751 753 755 758 761 766
654 653 654 654 653 653 652 651 650 649 648 646 645 645 646 646 646 648 650 651 652 654 656 658 660 661 663 665 667 669 672 674 676 678 681 683 685 687 689 691 692 694 695 696 697 699 700 700 700 700 700 701 702 703 704 705 706 708 710 711 712 713 716 720 721 719 719 718 718 718 721 722 724 728 730 731 732 736 740 745 748 750 752 756 760
655 655 655 656 655 654 653 653 652 651 650 648 645 645 646 647 647 648 650 651 652 653 655 657 659 660 662 664 666 668 670 672 674 677 679 681 683 685 686 688 690 691 693 693 694 696 696 696 696 697 696 697 699 700 701 702 702 703 705 706 707 709 711 714 716 715 715 716 715 716 717 717 718 721 724 725 727 729 732 736 740 743 745 749 753
657 656 657 656 655 654 655 654 653 653 652 650 648 647 648 649 649 651 651 651 652 653 655 657 658 660 661 663 664 667 669 671 673 675 677 679 681 683 684 686 688 689 690 691 691 692 693 694 694 694 694 694 695 696 697 697 697 698 699 700 701 703 706 710 712 712 712 714 715 716 717 716 715 717 719 720 721 723 727 730 734 737 740 744 747
657 657 658 657 655 656 656 655 654 654 653 653 652 651 651 652 653 654 654 654 654 655 656 657 658 659 661 663 664 666 668 670 672 674 675 677 679 680 682 684 685 686 688 689 689 690 691 691 692 692 692 692 692 693 693 693 693 693 693 694 696 698 701 705 706 706 707 710 712 715 716 715 715 715 716 717 718 721 725 729 732 734 737 740 742
659 659 660 659 657 658 658 657 656 656 654 654 654 654 654 655 655 655 656 656 655 656 657 657 658 659 661 662 663 665 667 669 671 672 674 676 677 679 680 681 682 683 684 686 687 688 688 689 689 689 689 689 690 690 690 690 689 689 689 691 693 694 697 700 700 700 702 706 709 711 711 712 714 714 714 714 715 718 722 726 729 732 734 735 736
661 661 661 660 659 659 660 659 658 658 657 657 656 656 656 656 656 656 656 656 656 656 656 657 658 659 660 661 663 664 666 668 669 671 672 673 674 676 677 678 679 681 681 682 683 684 685 686 686 686 686 686 687 687 687 688 688 687 687 688 689 691 693 695 695 696 698 703 706 706 706 708 711 711 709 707 709 711 713 717 722 727 729 731 731
661 662 662 662 661 661 661 661 661 660 659 659 658 658 657 657 656 656 656 656 657 657 656 657 657 658 659 661 662 663 665 667 667 668 670 671 672 673 674 675 677 678 679 680 680 681 682 683 684 684 684 684 684 684 685 687 686 685 684 684 684 686 687 688 689 691 695 699 700 700 702 704 705 706 705 704 704 705 706 708 711 715 719 722 723
662 663 663 663 663 663 662 663 662 661 660 659 658 658 658 657 657 657 656 657 657 657 657 657 658 658 659 660 661 662 664 666 666 667 668 669 670 671 672 673 675 676 677 678 679 679 680 681 681 681 681 682 682 682 683 684 684 683 682 681 679 679 680 681 683 686 689 692 692 693 695 695 695 697 700 701 702 702 704 705 707 708 711 714 717
663 663 663 663 664 664 664 663 662 661 659 658 658 658 658 659 659 658 658 658 658 658 658 658 659 660 660 661 661 662 664 666 667 667 668 669 669 670 672 673 674 675 676 677 678 678 679 680 680 680 679 679 680 680 681 680 680 680 680 679 678 677 675 676 677 680 682 684 684 685 685 685 686 688 691 694 696 697 699 701 704 706 708 710 713